Franklin, NC

3:26 AM EDT on October 23, 2017 (GMT -0400)
Franklin

Weather History for K1A5 - May, 2013

Change the Weather History Date:

Sunday, May 12, 2013

  Actual Average (KTOC) Record (KTOC)
Temperature  
Mean Temperature 50 °F -  
Max Temperature 61 °F 80 °F 90 °F (2014)
Min Temperature 38 °F 54 °F 63 °F (2016)
Degree Days  
Heating Degree Days 16    
Moisture  
Dew Point 37 °F    
Average Humidity 62    
Maximum Humidity 97    
Minimum Humidity 29    
Precipitation  
Precipitation 0.00 in - - ()
Sea Level Pressure  
Sea Level Pressure 30.03 in    
Wind  
Wind Speed 5 mph (NNW)    
Max Wind Speed 14 mph    
Max Gust Speed 22 mph    
Visibility 10 miles    
Events      
Averages and records for this station are not official NWS values.
T = Trace of Precipitation, MM = Missing Value Source: NWS Daily Summary

Daily Weather History Graph

Daily Weather History Graph

Search for Another Location

Airport or City:

Trip Planner

Search our weather history database for the weather conditions in past years. The results will help you decide how hot, cold, wet, or windy it might be!

Date:

Astronomy

May. 12, 2013 Rise Set
Actual Time 6:31 AM EDT 8:28 PM EDT
Civil Twilight 6:03 AM EDT 8:56 PM EDT
Nautical Twilight 5:29 AM EDT 9:30 PM EDT
Astronomical Twilight 4:53 AM EDT 10:07 PM EDT
Moon 8:27 AM EDT (5/12) 10:53 PM EDT (5/12)
Length of Visible Light 14h 52m
Length of Day
13h 56m
Waxing Crescent, 6% of the Moon is Illuminated
May 12
Waxing Crescent
May 18
First Quarter
May 25
Full
May 31
Last Quarter
Jun 8
New

Hourly Weather History & Observations

Time (EDT) Temp. Windchill Dew Point Humidity Pressure Visibility Wind Dir Wind Speed Gust Speed Precip Events Conditions
12:15 AM 54.7 °F - 49.8 °F 84% 29.99 in 10.0 mi North 5.8 mph - N/A   Clear
12:35 AM 54.7 °F - 49.1 °F 81% 29.99 in 10.0 mi North 4.6 mph - N/A   Clear
12:55 AM 53.8 °F - 48.9 °F 84% 29.98 in 10.0 mi North 5.8 mph - N/A   Clear
1:15 AM 53.8 °F - 47.7 °F 80% 29.98 in 10.0 mi NNW 4.6 mph - N/A   Clear
1:35 AM 53.6 °F - 47.7 °F 80% 29.98 in 10.0 mi NNW 6.9 mph - N/A   Clear
1:55 AM 53.2 °F - 46.6 °F 78% 29.98 in 10.0 mi Calm Calm - N/A   Clear
2:15 AM 52.5 °F - 46.4 °F 80% 29.99 in 10.0 mi Calm Calm - N/A   Clear
2:35 AM 51.3 °F - 46.6 °F 84% 29.98 in 10.0 mi North 3.5 mph - N/A   Clear
2:55 AM 51.3 °F - 45.5 °F 81% 29.98 in 10.0 mi Calm Calm - N/A   Clear
3:15 AM 48.9 °F - 45.7 °F 89% 29.97 in 10.0 mi Calm Calm - N/A   Clear
3:35 AM 46.9 °F - 45.5 °F 95% 29.97 in 10.0 mi West 3.5 mph - N/A   Clear
3:55 AM 46.6 °F - 45.7 °F 97% 29.97 in 10.0 mi Calm Calm - N/A   Clear
4:15 AM 45.3 °F - 44.4 °F 97% 29.97 in 7.0 mi Calm Calm - N/A   Clear
4:35 AM 44.8 °F - 43.9 °F 97% 29.98 in 7.0 mi Calm Calm - N/A   Clear
4:55 AM 45.0 °F - 43.9 °F 96% 29.98 in 10.0 mi Calm Calm - N/A   Clear
5:15 AM 46.9 °F - 45.7 °F 95% 29.98 in 10.0 mi NW 4.6 mph - N/A   Clear
5:35 AM 43.9 °F - 42.8 °F 96% 29.97 in 7.0 mi Calm Calm - N/A   Scattered Clouds
5:55 AM 43.2 °F 41.5 °F 42.3 °F 97% 29.97 in 7.0 mi WSW 3.5 mph - N/A   Clear
6:15 AM 43.0 °F 41.3 °F 41.9 °F 96% 29.99 in 7.0 mi WSW 3.5 mph - N/A   Clear
6:35 AM 43.0 °F 41.3 °F 41.9 °F 96% 29.99 in 7.0 mi West 3.5 mph - N/A   Clear
6:55 AM 43.0 °F 41.3 °F 41.9 °F 96% 30.00 in 5.0 mi WSW 3.5 mph - N/A   Scattered Clouds
7:15 AM 44.1 °F - 43.0 °F 96% 30.00 in 7.0 mi Calm Calm - N/A   Mostly Cloudy
7:35 AM 45.0 °F - 43.9 °F 96% 30.01 in 7.0 mi Calm Calm - N/A   Mostly Cloudy
7:55 AM 46.4 °F 45.2 °F 45.5 °F 97% 30.01 in 10.0 mi ENE 3.5 mph - N/A   Scattered Clouds
8:15 AM 48.4 °F - 47.1 °F 95% 30.01 in 10.0 mi ENE 3.5 mph - N/A   Scattered Clouds
8:35 AM 51.4 °F - 45.3 °F 80% 30.02 in 10.0 mi Calm Calm - N/A   Mostly Cloudy
8:55 AM 52.7 °F - 44.1 °F 72% 30.03 in 10.0 mi NNW 6.9 mph - N/A   Scattered Clouds
9:15 AM 54.0 °F - 42.8 °F 66% 30.03 in 10.0 mi NNW 5.8 mph - N/A   Clear
9:35 AM 55.4 °F - 42.1 °F 61% 30.03 in 10.0 mi NNW 10.4 mph 18.4 mph N/A   Clear
9:55 AM 55.4 °F - 41.7 °F 60% 30.02 in 10.0 mi NNW 8.1 mph 17.3 mph N/A   Clear
10:15 AM 56.3 °F - 40.8 °F 56% 30.02 in 10.0 mi NNW 6.9 mph - N/A   Clear
10:35 AM 56.8 °F - 40.3 °F 54% 30.03 in 10.0 mi NW 10.4 mph 17.3 mph N/A   Clear
10:55 AM 57.2 °F - 36.9 °F 47% 30.03 in 10.0 mi North 13.8 mph 19.6 mph N/A   Clear
11:15 AM 57.6 °F - 37.8 °F 48% 30.04 in 10.0 mi NNW 11.5 mph 17.3 mph N/A   Clear
11:35 AM 57.7 °F - 32.4 °F 38% 30.04 in 10.0 mi North 13.8 mph 19.6 mph N/A   Clear
11:55 AM 58.1 °F - 30.7 °F 35% 30.04 in 10.0 mi North 12.7 mph 19.6 mph N/A   Clear
12:15 PM 58.3 °F - 29.8 °F 34% 30.04 in 10.0 mi North 12.7 mph 17.3 mph N/A   Clear
12:35 PM 58.8 °F - 30.4 °F 34% 30.04 in 10.0 mi North 12.7 mph 17.3 mph N/A   Clear
12:55 PM 60.3 °F - 31.6 °F 34% 30.04 in 10.0 mi North 12.7 mph 17.3 mph N/A   Clear
1:15 PM 60.6 °F - 32.2 °F 34% 30.04 in 10.0 mi North 12.7 mph 19.6 mph N/A   Clear
1:35 PM 60.6 °F - 31.3 °F 33% 30.04 in 10.0 mi North 9.2 mph 21.9 mph N/A   Clear
1:55 PM 61.0 °F - 30.6 °F 32% 30.04 in 10.0 mi North 11.5 mph 19.6 mph N/A   Clear
2:15 PM 61.3 °F - 32.0 °F 33% 30.04 in 10.0 mi NW 12.7 mph 20.7 mph N/A   Clear
2:35 PM 61.0 °F - 29.8 °F 31% 30.04 in 10.0 mi NNW 12.7 mph 19.6 mph N/A   Clear
2:55 PM 61.2 °F - 30.7 °F 32% 30.03 in 10.0 mi North 13.8 mph 20.7 mph N/A   Clear
3:15 PM 61.9 °F - 32.4 °F 33% 30.03 in 10.0 mi North 10.4 mph 16.1 mph N/A   Clear
3:35 PM 61.9 °F - 30.9 °F 31% 30.02 in 10.0 mi North 5.8 mph 18.4 mph N/A   Clear
3:55 PM 61.0 °F - 29.5 °F 30% 30.02 in 10.0 mi NNW 6.9 mph 17.3 mph N/A   Clear
4:15 PM 61.5 °F - 31.1 °F 32% 30.02 in 10.0 mi NW 9.2 mph 18.4 mph N/A   Clear
4:35 PM 61.0 °F - 31.5 °F 33% 30.02 in 10.0 mi NW 10.4 mph 19.6 mph N/A   Clear
4:55 PM 61.0 °F - 30.7 °F 32% 30.02 in 10.0 mi WNW 10.4 mph 18.4 mph N/A   Clear
5:15 PM 60.8 °F - 31.3 °F 33% 30.04 in 10.0 mi NNW 10.4 mph - N/A   Clear
5:35 PM 60.3 °F - 31.3 °F 34% 30.04 in 10.0 mi West 11.5 mph 17.3 mph N/A   Clear
5:55 PM 60.6 °F - 31.1 °F 33% 30.04 in 10.0 mi Calm Calm - N/A   Clear
6:15 PM 59.9 °F - 29.7 °F 32% 30.04 in 10.0 mi Calm Calm - N/A   Clear
6:35 PM 59.2 °F - 28.0 °F 31% 30.05 in 10.0 mi NW 9.2 mph - N/A   Clear
6:55 PM 58.5 °F - 26.2 °F 29% 30.05 in 10.0 mi West 6.9 mph - N/A   Clear
7:15 PM 57.6 °F - 25.7 °F 29% 30.06 in 10.0 mi Calm Calm - N/A   Clear
7:35 PM 56.7 °F - 25.3 °F 30% 30.06 in 10.0 mi Calm Calm - N/A   Clear
7:55 PM 55.4 °F - 25.2 °F 31% 30.07 in 10.0 mi Calm Calm - N/A   Clear
8:15 PM 54.3 °F - 22.8 °F 29% 30.07 in 10.0 mi Calm Calm - N/A   Clear
8:35 PM 52.7 °F - 24.4 °F 33% 30.08 in 10.0 mi Calm Calm - N/A   Clear
8:55 PM 50.7 °F - 28.8 °F 43% 30.08 in 10.0 mi Calm Calm - N/A   Clear
9:15 PM 44.4 °F - 35.1 °F 70% 30.09 in 10.0 mi Calm Calm - N/A   Clear
9:35 PM 43.0 °F - 35.6 °F 75% 30.10 in 10.0 mi Calm Calm - N/A   Clear
9:55 PM 42.3 °F - 36.1 °F 79% 30.10 in 10.0 mi Calm Calm - N/A   Clear
10:15 PM 40.6 °F - 35.2 °F 81% 30.10 in 10.0 mi Calm Calm - N/A   Clear
10:35 PM 39.4 °F - 34.7 °F 83% 30.11 in 10.0 mi Calm Calm - N/A   Clear
10:55 PM 39.2 °F - 34.3 °F 83% 30.11 in 10.0 mi Calm Calm - N/A   Clear
11:15 PM 38.8 °F - 35.1 °F 86% 30.11 in 10.0 mi Calm Calm - N/A   Clear
11:35 PM 38.5 °F - 34.9 °F 87% 30.12 in 10.0 mi Calm Calm - N/A   Clear
11:55 PM 38.3 °F - 33.6 °F 83% 30.12 in 10.0 mi Calm Calm - N/A   Clear